Weather History for KFHU - June, 2013

Change the Weather History Date:

Thursday, June 13, 2013

  Actual Average Record
Temperature  
Mean Temperature 82 °F -  
Max Temperature 96 °F 88 °F 100 °F (2006)
Min Temperature 69 °F 66 °F 54 °F (1989)
Cooling Degree Days 18    
Growing Degree Days 32 (Base 50)    
Moisture  
Dew Point 38 °F    
Average Humidity 21    
Maximum Humidity 41    
Minimum Humidity 10    
Precipitation  
Precipitation 0.00 in - - ()
Sea Level Pressure  
Sea Level Pressure 29.87 in    
Wind  
Wind Speed 10 mph (WNW)    
Max Wind Speed 20 mph    
Max Gust Speed 30 mph    
Visibility 10 miles    
Events      
Averages and records for this station are not official NWS values.
T = Trace of Precipitation, MM = Missing Value Source: NWS Daily Summary

Daily Weather History Graph

Daily Weather History Graph

Search for Another Location

Airport or City:

Trip Planner

Search our weather history database for the weather conditions in past years. The results will help you decide how hot, cold, wet, or windy it might be!

Date:

Astronomy

Jun. 13, 2013 Rise Set
Actual Time 5:15 AM MST 7:27 PM MST
Civil Twilight 4:47 AM MST 7:55 PM MST
Nautical Twilight 4:13 AM MST 8:29 PM MST
Astronomical Twilight 3:36 AM MST 9:06 PM MST
Moon 9:41 AM MST (6/13) 10:51 PM MST (6/13)
Length of Visible Light 15h 07m
Length of Day
14h 11m
Waxing Crescent, 22% of the Moon is Illuminated
Jun 13
Waxing Crescent
Jun 16
First Quarter
Jun 23
Full
Jun 29
Last Quarter
Jul 8
New

Hourly Weather History & Observations

Time (MST) Temp. Dew Point Humidity Pressure Visibility Wind Dir Wind Speed Gust Speed Precip Events Conditions
12:55 AM 78.8 °F 32.0 °F 18% 29.87 in 10.0 mi WNW 9.2 mph - N/A   Partly Cloudy
1:55 AM 78.8 °F 35.6 °F 21% 29.87 in 10.0 mi WSW 8.1 mph - N/A   Scattered Clouds
2:55 AM 75.2 °F 41.0 °F 29% 29.87 in 10.0 mi WNW 8.1 mph - N/A   Mostly Cloudy
3:55 AM 71.6 °F 39.2 °F 31% 29.89 in 10.0 mi Calm Calm - N/A   Scattered Clouds
4:55 AM 69.8 °F 42.8 °F 38% 29.91 in 10.0 mi West 11.5 mph - N/A   Partly Cloudy
5:55 AM 73.4 °F 42.8 °F 33% 29.90 in 10.0 mi WNW 10.4 mph - N/A   Partly Cloudy
6:55 AM 73.4 °F 48.2 °F 41% 29.93 in 10.0 mi Variable 4.6 mph - N/A   Partly Cloudy
7:55 AM 80.6 °F 44.6 °F 28% 29.93 in 10.0 mi WNW 8.1 mph - N/A   Partly Cloudy
8:55 AM 86.0 °F 41.0 °F 20% 29.92 in 10.0 mi WNW 13.8 mph 19.6 mph N/A   Partly Cloudy
9:55 AM 87.8 °F 37.4 °F 17% 29.92 in 10.0 mi WNW 11.5 mph - N/A   Partly Cloudy
10:55 AM 91.4 °F 35.6 °F 14% 29.91 in 10.0 mi NW 8.1 mph 16.1 mph N/A   Partly Cloudy
11:55 AM 93.2 °F 33.8 °F 12% 29.89 in 10.0 mi WNW 6.9 mph 18.4 mph N/A   Partly Cloudy
12:55 PM 93.2 °F 33.8 °F 12% 29.88 in 10.0 mi North 13.8 mph 24.2 mph N/A   Partly Cloudy
1:55 PM 96.8 °F 32.0 °F 10% 29.85 in 10.0 mi WNW 19.6 mph 24.2 mph N/A   Partly Cloudy
2:55 PM 96.8 °F 33.8 °F 11% 29.83 in 10.0 mi NW 16.1 mph 26.5 mph N/A   Partly Cloudy
3:55 PM 96.8 °F 35.6 °F 12% 29.83 in 10.0 mi NW 12.7 mph 25.3 mph N/A   Partly Cloudy
4:55 PM 95.0 °F 35.6 °F 12% 29.80 in 10.0 mi WNW 18.4 mph 26.5 mph N/A   Partly Cloudy
5:55 PM 91.4 °F 35.6 °F 14% 29.80 in 10.0 mi NW 18.4 mph 29.9 mph N/A   Partly Cloudy
6:55 PM 89.6 °F 33.8 °F 14% 29.81 in 10.0 mi NNW 17.3 mph - N/A   Partly Cloudy
7:55 PM 87.8 °F 33.8 °F 15% 29.81 in 10.0 mi NW 13.8 mph - N/A   Partly Cloudy
8:55 PM 82.4 °F 35.6 °F 19% 29.83 in 10.0 mi West 8.1 mph - N/A   Partly Cloudy
9:55 PM 82.4 °F 37.4 °F 20% 29.86 in 10.0 mi West 12.7 mph - N/A   Partly Cloudy
10:55 PM 80.6 °F 39.2 °F 23% 29.86 in 10.0 mi West 11.5 mph - N/A   Scattered Clouds
11:55 PM 78.8 °F 46.4 °F 32% 29.86 in 10.0 mi West 13.8 mph - N/A   Partly Cloudy